Presure
279 282 257 258 257 278 280 263 87 350 232 86 493 160 316 325 325 280 226 214 213 201 187 183 175 180 177 187 126 166 171 174 173 156 181 173 165 171 186 190 165 152 185
246 303 266 250 251 262 260 276 270 359 356 376 432 442 389 344 334 256 253 96 212 193 203 176 188 176 178 198 192 125 184 162 184 180 181 131 145 169 178 175 179 164 167
230 274 290 242 246 286 277 249 295 331 342 361 390 430 334 314 319 243 218 211 196 183 193 93 189 185 175 167 173 186 187 154 165 161 147 157 176 165 135 173 179 179 169
233 234 281 253 257 263 240 254 278 321 325 342 353 338 328 307 315 306 264 203 211 190 98 181 191 197 201 187 166 184 172 164 165 157 177 161 142 177 152 166 157 150 190
239 237 253 273 242 275 291 280 283 268 304 310 289 288 302 300 300 331 246 295 191 117 182 178 193 194 192 174 189 175 178 179 150 148 169 163 161 152 178 172 136 176 169
230 247 242 248 273 235 263 283 253 239 289 290 285 327 337 320 328 315 225 245 97 189 191 184 186 192 202 200 192 175 171 184 155 185 173 189 171 156 181 188 171 174 177
225 224 243 248 253 245 246 246 267 265 253 271 279 281 288 308 318 309 250 261 214 202 189 191 200 187 193 180 172 184 182 206 195 177 185 200 166 177 152 133 181 127 161
229 228 248 238 249 270 231 254 242 252 249 266 256 285 272 269 293 283 367 278 201 200 182 203 194 185 194 183 186 179 178 172 196 147 183 187 168 191 171 192 190 171 177
229 227 244 247 248 283 274 255 245 253 254 256 255 272 273 294 270 294 329 205 233 201 193 190 197 197 193 196 185 179 179 191 179 184 195 172 183 188 177 130 186 181 192
226 226 239 247 256 297 265 263 270 246 252 230 249 267 267 280 269 296 312 246 214 201 204 191 204 188 193 184 192 188 188 181 198 193 183 180 193 201 191 183 175 194 198
251 250 253 264 303 295 268 259 250 265 248 250 233 246 258 256 280 265 281 255 203 232 201 192 199 167 186 177 179 191 193 197 173 185 176 193 161 193 180 161 170 164 193
258 265 313 325 304 284 274 264 251 248 277 250 261 276 250 263 273 277 278 299 278 242 237 196 200 192 194 195 191 191 195 205 187 194 178 205 192 163 182 204 188 209 213
309 376 351 328 300 284 269 261 257 251 237 270 266 238 237 301 243 260 264 275 244 262 251 192 194 192 193 194 193 179 195 187 178 199 199 194 173 192 196 189 177 185 172
355 349 340 316 302 281 272 264 256 251 250 253 265 251 261 237 283 271 255 263 279 226 240 231 221 204 182 187 203 191 193 198 206 200 194 194 196 186 179 193 204 196 207
337 340 325 307 299 288 274 275 264 252 246 246 251 261 262 256 244 279 276 221 273 278 245 218 204 211 202 199 201 197 188 203 213 203 205 204 216 222 207 222 212 197 207
328 336 317 300 291 288 278 267 270 267 253 246 241 251 261 263 255 264 271 280 276 287 281 238 220 205 224 212 208 197 201 212 211 212 210 199 194 195 204 187 207 214 221
310 307 320 300 289 279 280 271 270 269 269 258 250 249 249 252 266 269 267 263 276 280 287 270 215 250 240 230 215 211 211 205 211 219 223 215 184 213 213 187 211 192 193
309 292 306 297 285 275 275 276 269 273 279 278 276 258 255 251 253 251 268 275 278 275 284 295 277 250 254 238 208 215 214 218 212 210 218 220 221 204 201 213 230 222 218
303 292 289 294 288 283 273 272 274 279 269 279 285 285 285 276 260 254 259 266 272 278 284 290 303 281 252 226 214 214 234 218 200 198 218 229 211 216 230 208 216 206 213
293 305 287 282 281 278 277 279 279 276 275 278 281 281 284 288 292 299 294 268 273 276 281 280 292 274 254 255 235 248 257 260 242 213 227 236 229 243 206 228 218 210 231
294 292 306 287 279 277 275 275 275 276 275 276 280 280 280 280 285 289 300 307 325 334 360 284 281 294 294 285 264 266 251 245 276 231 255 227 214 243 208 211 239 246 212
286 291 286 290 293 285 276 274 275 276 277 278 280 283 289 296 304 320 325 333 323 318 317 319 322 325 276 300 305 273 260 284 273 252 248 292 252 248 209 224 207 210 250
293 301 293 286 282 281 281 284 286 286 287 294 301 308 332 325 310 301 294 290 288 291 294 297 299 304 309 314 323 328 334 337 325 324 326 337 338 333 311 248 247 242 241
307 295 289 289 289 288 291 292 295 300 313 314 314 306 292 279 275 274 275 277 283 290 299 306 308 306 306 310 314 321 337 470 466 485 457 471 467 467 466 434 451 453 272
296 294 297 298 300 298 289 290 294 303 301 286 275 273 276 279 281 285 285 289 303 296 288 288 302 343 451 441 459 474 471 464 457 451 450 452 457 498 497 495 488 481 491
301 301 301 299 295 300 300 306 287 278 276 276 274 275 279 281 279 299 316 279 286 295 315 355 441 432 441 453 449 453 440 430 426 453 491 485 480 479 476 475 473 464 464
Wind_Speed
37 32 28 33 42 34 37 47 30 45 26 34 21 36 50 47 60 85 112 104 107 98 97 87 77 80 82 74 42 66 70 62 51 57 63 66 56 61 51 53 50 51 45
43 32 29 32 38 34 40 42 41 32 30 25 12 30 54 53 51 101 106 38 109 100 108 82 93 87 86 79 72 50 69 61 66 66 67 52 52 67 61 62 60 58 55
43 38 31 35 37 18 16 39 19 28 26 23 17 0 47 47 51 98 99 110 103 84 96 37 78 94 87 68 63 72 71 63 60 68 60 50 70 60 54 66 61 69 68
43 43 40 26 31 26 31 43 20 27 26 20 10 16 33 45 43 60 103 107 111 99 42 93 94 95 98 83 77 73 73 74 69 61 78 68 33 79 66 51 52 49 75
34 40 33 39 33 30 24 10 18 18 18 13 25 32 29 40 36 42 104 80 100 46 93 81 100 103 98 87 89 89 85 79 50 50 79 62 53 38 84 76 44 78 51
39 32 33 32 36 32 30 26 25 23 13 13 4 18 13 17 25 47 95 93 39 101 110 100 107 101 96 95 99 92 95 99 59 95 92 87 78 41 83 84 68 70 68
45 40 32 35 35 31 30 27 13 3 18 13 13 15 10 9 16 36 97 99 107 116 110 117 113 103 108 98 88 105 104 96 100 94 98 97 71 80 33 50 81 45 57
43 44 37 35 38 40 33 28 29 18 16 9 29 12 28 36 22 52 23 74 109 119 105 119 117 109 111 94 114 102 99 90 106 55 103 102 75 93 81 98 96 61 70
44 45 43 40 39 38 36 29 34 28 23 28 27 14 26 27 44 20 33 102 118 125 124 119 121 119 121 117 112 102 100 108 95 104 109 78 101 102 88 51 98 90 101
49 49 47 47 49 36 40 39 37 39 35 38 33 29 29 29 52 23 22 105 123 123 130 105 125 110 119 104 118 116 116 103 120 116 105 97 109 111 110 99 51 108 105
54 53 53 57 41 39 41 42 41 41 43 46 45 42 40 39 39 60 41 89 113 108 130 116 124 66 96 92 97 115 125 122 80 112 83 118 67 100 77 48 65 51 104
58 61 50 42 42 43 43 45 45 42 35 53 46 46 49 51 47 46 45 32 80 121 130 126 132 122 128 126 123 126 130 126 114 125 81 130 115 53 92 123 100 120 118
67 37 44 45 45 46 48 48 50 48 47 39 43 58 58 36 66 57 62 60 112 98 119 115 127 125 128 137 131 83 132 112 74 135 133 114 78 112 118 88 55 76 56
32 37 44 48 49 49 51 54 54 52 50 45 44 53 53 67 45 62 61 71 66 96 126 133 137 140 97 110 144 119 122 128 145 135 120 119 121 79 64 103 131 93 135
33 37 43 48 51 52 54 57 59 59 56 55 53 53 55 60 66 56 61 69 72 76 127 125 131 127 129 131 133 126 83 125 147 138 131 136 148 150 122 149 126 93 99
33 35 42 47 51 54 55 57 61 63 64 63 63 63 62 63 68 68 67 68 77 77 83 132 117 123 150 145 140 97 105 141 142 147 139 90 82 92 116 76 129 140 125
30 32 41 46 49 53 57 60 62 65 68 71 71 70 68 68 69 72 74 78 77 83 88 114 128 143 155 157 141 125 127 111 134 158 157 148 65 134 131 76 113 72 67
30 31 35 46 50 53 56 60 64 65 68 71 75 76 75 73 75 77 78 81 84 90 91 95 119 146 148 149 114 133 131 147 134 128 149 143 154 90 93 104 156 142 131
33 36 37 41 46 54 58 61 62 64 66 67 70 74 78 82 83 83 85 87 89 91 93 98 100 127 149 154 135 133 162 131 80 112 141 167 112 119 143 105 124 97 110
36 37 42 44 47 50 53 55 56 60 64 67 68 71 73 75 76 78 83 91 93 96 97 105 104 130 150 149 155 160 169 173 170 103 147 174 150 179 76 150 127 83 157
34 37 40 48 50 52 55 57 60 63 66 68 70 72 75 78 80 82 85 87 89 89 78 105 113 112 118 136 158 165 169 167 165 152 183 153 110 176 80 89 172 184 88
39 40 42 44 50 56 58 60 63 66 69 73 76 79 82 84 85 82 79 71 72 74 76 80 84 87 121 119 126 159 162 162 169 174 178 172 186 189 87 135 76 77 187
40 44 48 50 52 55 58 62 65 67 70 73 76 77 72 67 67 68 69 71 73 76 78 81 85 90 94 97 101 105 107 110 124 131 138 127 142 147 155 185 187 188 187
45 46 48 51 53 57 60 62 65 67 66 66 65 64 64 64 66 68 71 74 77 82 86 88 89 91 95 97 100 105 104 69 69 62 69 63 63 62 61 78 74 73 183
44 46 49 51 53 54 56 59 61 63 62 61 61 63 66 70 73 76 77 80 85 84 85 88 92 97 74 75 70 64 63 63 63 64 64 64 62 52 51 50 49 48 46
47 49 52 54 55 58 60 62 58 58 60 63 65 67 71 73 74 82 84 80 85 90 96 100 73 74 72 67 66 62 61 62 63 61 54 54 53 51 50 49 47 47 46
Wind_Direction
325 315 298 301 305 310 306 303 270 307 294 270 268 255 210 224 218 207 203 208 201 207 226 229 227 230 233 230 244 249 236 235 237 267 235 248 247 254 253 257 251 261 253
314 322 312 301 302 296 297 303 311 336 341 358 13 214 216 221 218 201 198 250 204 225 211 239 221 238 237 221 218 244 222 246 223 234 239 261 258 258 254 252 250 261 258
304 346 326 299 304 290 318 309 355 14 17 10 21 316 190 198 212 203 210 209 211 232 217 269 223 226 245 252 235 221 218 240 241 260 266 260 246 263 268 255 259 256 258
304 307 344 307 312 303 305 307 338 34 28 41 69 155 180 194 208 211 199 214 209 227 262 227 221 214 214 230 252 219 240 258 253 237 239 268 259 250 257 262 263 279 267
306 306 328 339 304 312 304 306 10 335 57 80 180 188 188 200 218 218 202 215 214 250 236 221 220 220 224 244 226 242 233 235 256 266 261 240 254 283 251 257 263 257 259
290 311 308 319 322 299 308 297 278 271 62 78 171 207 225 242 240 217 208 204 269 221 223 231 230 223 215 217 225 244 248 240 261 238 262 242 242 287 253 249 265 271 271
287 293 307 316 321 292 291 296 285 230 233 184 177 166 143 190 199 217 204 202 206 208 224 223 218 230 221 236 244 237 241 227 229 253 244 234 274 257 261 257 262 263 260
285 288 306 296 309 309 280 273 278 257 235 290 212 255 189 206 217 214 197 197 208 209 228 215 223 235 222 235 232 244 247 255 234 249 247 246 261 244 277 252 255 287 273
281 286 300 298 298 288 276 267 255 250 249 227 227 244 216 214 207 212 196 211 202 211 218 227 222 221 226 226 237 247 248 241 254 248 239 248 252 251 264 266 258 264 261
279 279 290 293 296 267 270 264 247 250 242 248 248 254 225 227 209 213 207 206 206 213 215 231 217 234 230 243 235 241 242 252 239 243 253 261 245 244 252 261 272 261 261
294 292 291 292 269 258 257 258 259 243 246 239 240 247 244 232 252 211 222 211 214 217 221 232 225 253 238 248 249 239 240 239 264 253 261 246 253 252 259 258 257 268 264
293 293 278 251 249 250 247 250 252 256 245 235 235 236 238 246 245 236 232 250 217 211 214 226 224 234 232 233 240 241 240 238 251 247 266 245 256 260 258 251 264 255 257
292 244 237 233 238 239 243 245 248 249 252 245 239 239 235 245 225 232 225 226 214 218 216 230 232 233 233 235 240 252 243 256 259 244 246 254 258 259 257 263 269 279 263
255 244 233 230 230 234 236 239 242 247 248 247 244 240 239 240 233 233 238 226 235 227 219 220 221 226 247 246 236 248 249 249 241 251 255 257 256 264 269 256 260 271 259
256 245 231 229 231 229 234 234 236 241 246 247 247 243 243 236 238 239 234 240 233 233 220 222 225 230 235 240 242 246 259 247 241 250 253 253 248 248 255 252 257 263 261
262 257 234 232 235 234 233 236 239 239 240 245 247 246 246 243 241 237 241 242 237 240 236 223 232 238 228 235 241 255 259 247 247 247 251 258 269 257 254 268 261 264 258
262 265 245 236 237 240 240 241 240 241 243 242 245 248 247 247 247 247 243 238 242 242 241 229 234 225 227 230 241 251 253 261 253 246 247 255 262 262 262 266 266 265 268
260 256 254 241 238 242 246 248 250 252 250 250 249 248 249 249 250 247 249 250 249 242 244 246 233 229 230 235 252 250 254 249 254 263 255 253 257 270 261 273 262 266 265
254 250 250 249 245 244 248 252 255 257 257 260 260 259 260 255 250 250 249 250 250 250 251 250 253 237 234 240 252 255 243 253 266 256 258 251 264 271 258 263 255 267 268
259 255 249 249 249 250 253 256 257 258 259 262 264 265 266 267 268 268 264 253 254 252 253 249 253 240 237 240 244 243 241 242 247 265 260 252 259 251 269 264 263 276 269
259 262 262 252 253 255 257 259 261 263 264 266 268 268 269 269 271 272 275 276 279 279 282 256 252 256 254 249 245 245 247 249 246 255 246 261 273 257 273 276 263 258 279
266 262 262 261 261 259 260 262 263 265 267 269 270 272 273 274 275 277 278 277 276 275 274 274 274 273 255 257 258 252 253 255 254 255 255 257 255 257 267 272 275 276 262
266 266 262 264 265 265 265 266 268 270 271 273 275 276 280 279 278 278 278 276 274 274 273 271 270 270 269 269 269 269 269 268 264 263 264 267 265 264 265 264 265 267 268
267 267 268 267 267 267 269 271 274 276 279 279 279 278 279 278 278 277 277 277 279 279 280 280 278 275 273 272 271 271 271 288 287 290 283 285 282 280 277 272 270 268 267
275 273 273 273 274 274 274 274 276 278 279 281 283 283 284 284 284 285 285 285 287 284 280 277 281 288 297 296 296 296 295 292 291 288 286 284 282 280 277 273 270 267 263
277 276 276 276 277 278 278 279 282 286 287 287 286 286 287 288 288 291 292 286 286 287 291 297 300 299 299 298 297 295 293 291 289 289 289 286 282 278 274 271 267 264 262